Location: Saint-Hippolyte
(43.6394°N, 4.7559°E)
Time: 15:04:22
(UTC+00:00)

Cosmos 1356 Rocket - Pass Details

Date: 24 October 2020
Orbit: 542 x 598 km, 81.2° (Epoch: 24 November)

Event Time Altitude Azimuth Distance (km) Brightness Sun altitude
Rises 17:19:09 0° 200° (SSW) 2,798 7.4 -7.2°
Reaches altitude 10° 17:21:22 10° 205° (SSW) 1,911 6.6 -7.6°
Maximum altitude 17:25:31 54° 283° (WNW) 726 4.4 -8.4°
Drops below altitude 10° 17:29:45 10° 1° (N) 1,945 6.0 -9.1°
Sets 17:32:01 0° 6° (N) 2,855 6.8 -9.6°
